カタログに戻る

BREEZE-M DEB

TANK

運用中HEO
NORAD 37845·DEBRIS·🇷🇺 Russia

打ち上げ Oct 19, 2011 から Baikonur Cosmodrome

Loading…

次のパス (今後24時間)

TLE

最新Source: Space-Track

元期: Sep 14, 2026, 02:29 UTC

1 37845U 11059C   26257.10383493  .00003759  00000-0  64914-3 0  9997
2 37845  49.7155 207.2280 4496527 316.7654  15.5995  6.46323986341740

AllMySatでBREEZE-M DEBをリアルタイム追跡

Download on the App Store